DW3068 Weather Reports


Display with metric or nautical units.
time (UTC)temp
F
wind
direction
speed
MPH
gust
MPH
rain 1hr
in
rain 24hr
in
rain mn
in
humidity
%
barometer
mb
20260503180834 51 84 4.0 6.0 0.00 0.08 0.00 50 1020.8
20260503180327 51 49 4.0 9.0 0.00 0.08 0.00 49 1020.8
20260503175902 51 66 5.0 9.0 0.00 0.08 0.00 49 1020.8
20260503175327 51 69 5.0 8.0 0.00 0.08 0.00 49 1020.8
20260503174834 51 78 4.0 10.0 0.00 0.08 0.00 48 1020.8
20260503174319 52 76 5.0 12.0 0.00 0.08 0.00 48 1020.8
20260503173833 52 62 7.0 11.0 0.00 0.08 0.00 48 1020.7
20260503173318 52 61 7.0 12.0 0.00 0.08 0.00 47 1020.6
20260503172831 52 78 7.0 17.0 0.00 0.08 0.00 47 1020.6
20260503171843 53 71 10.0 17.0 0.00 0.08 0.00 46 1020.6
20260503171338 53 129 9.0 14.0 0.00 0.08 0.00 45 1020.5
20260503170824 53 63 9.0 14.0 0.00 0.08 0.00 45 1020.5
20260503170317 54 82 7.0 15.0 0.00 0.08 0.00 44 1020.3
20260503150817 56 317 8.0 15.0 0.00 0.08 0.00 40 1020.2
20260503150353 56 58 8.0 14.0 0.00 0.08 0.00 41 1020.1
20260503131349 57 30 7.0 20.0 0.00 0.08 0.00 40 1020.8
20260503130841 57 5 9.0 16.0 0.00 0.08 0.00 39 1020.6
20260503130323 57 355 10.0 16.0 0.00 0.08 0.00 39 1020.8
20260503110331 53 293 3.0 9.0 0.00 0.08 0.00 44 1021.6
20260503090324 51 57 14.0 19.0 0.00 0.08 0.00 45 1022.3
20260503081316 50 327 5.0 13.0 0.00 0.08 0.00 47 1022.5
20260503080847 50 65 5.0 13.0 0.00 0.08 0.00 48 1022.6
20260503080340 50 44 6.0 14.0 0.00 0.08 0.00 49 1022.5
20260503072829 48 61 7.0 16.0 0.00 0.08 0.00 48 1022.6
20260503072324 48 94 9.0 16.0 0.00 0.08 0.00 49 1022.7
20260503071859 48 118 6.0 16.0 0.00 0.08 0.00 50 1022.6
20260503071325 48 94 8.0 12.0 0.00 0.08 0.00 52 1022.7
20260503070834 48 75 6.0 11.0 0.00 0.08 0.00 53 1022.7
20260503070318 48 66 5.0 12.0 0.00 0.08 0.00 55 1022.6
20260503060328 45 82 8.0 13.0 0.00 0.08 0.00 65 1022.4
20260503054820 44 81 9.0 14.0 0.00 0.08 0.00 68 1022.4
20260503054324 44 80 8.0 14.0 0.00 0.08 0.00 68 1022.2
20260503053832 43 76 8.0 14.0 0.00 0.08 0.00 69 1022.2
20260503053328 43 74 8.0 12.0 0.00 0.08 0.00 69 1022.2
20260503052843 43 119 7.0 13.0 0.00 0.08 0.00 70 1022.2
20260503052327 43 78 6.0 11.0 0.00 0.08 0.00 70 1022.2
20260503051842 43 58 8.0 16.0 0.00 0.08 0.00 70 1022.2
20260503051349 43 71 7.0 16.0 0.00 0.08 0.00 70 1022.1
20260503050842 43 84 7.0 11.0 0.00 0.08 0.00 71 1022.0
20260503050315 42 73 6.0 10.0 0.00 0.08 0.00 71 1022.0
20260503045829 42 88 6.0 9.0 0.00 0.08 0.00 71 1022.2
20260503045314 43 69 5.0 11.0 0.00 0.08 0.00 71 1022.1
20260503044820 43 90 6.0 12.0 0.00 0.08 0.00 71 1021.8
20260503044334 43 67 7.0 12.0 0.00 0.08 0.00 72 1022.0
20260503043818 42 76 4.0 12.0 0.00 0.08 0.00 73 1021.9
20260503043332 42 82 6.0 12.0 0.00 0.08 0.00 73 1021.7
20260503042905 42 57 6.0 10.0 0.00 0.08 0.00 73 1021.7
20260503042322 42 74 6.0 10.0 0.00 0.08 0.00 73 1021.5
20260503041817 42 53 7.0 10.0 0.00 0.08 0.00 74 1021.4
20260503041350 42 88 5.0 8.0 0.00 0.08 0.00 74 1021.2
20260503040815 42 68 5.0 7.0 0.00 0.08 0.00 74 1021.2
20260503040330 42 69 4.0 8.0 0.00 0.08 0.00 74 1021.1
20260503035823 42 79 5.0 10.0 0.00 0.08 0.00 74 1021.0
20260503035338 42 79 7.0 11.0 0.00 0.08 0.00 74 1020.9
20260503034817 42 61 6.0 9.0 0.00 0.08 0.00 76 1021.0
20260503034331 42 82 6.0 10.0 0.00 0.08 0.00 76 1020.8
20260503033824 42 77 7.0 10.0 0.00 0.08 0.00 76 1020.8
20260503033358 42 82 5.0 10.0 0.00 0.08 0.00 76 1020.8
20260503032820 42 81 5.0 13.0 0.00 0.08 0.00 76 1020.7
20260503032332 42 90 6.0 13.0 0.00 0.08 0.00 76 1020.8
20260503031818 42 107 7.0 12.0 0.00 0.08 0.00 77 1020.8
20260503031333 42 105 7.0 12.0 0.00 0.08 0.00 77 1020.7
20260503030816 42 94 7.0 10.0 0.00 0.08 0.00 77 1020.7
20260503030332 43 85 6.0 10.0 0.00 0.08 0.00 77 1020.8
20260503025818 43 83 5.0 10.0 0.00 0.08 0.00 77 1020.8
20260503025328 43 74 4.0 10.0 0.00 0.08 0.00 77 1020.8
20260503024834 43 110 6.0 10.0 0.00 0.08 0.00 76 1020.7
20260503024320 43 72 6.0 11.0 0.00 0.08 0.00 76 1020.7
20260503023834 43 86 4.0 10.0 0.00 0.08 0.00 77 1020.7
20260503023329 43 71 3.0 4.0 0.00 0.08 0.00 77 1020.6
20260503022815 44 63 2.0 3.0 0.00 0.08 0.00 77 1020.5
20260503022330 44 87 2.0 6.0 0.00 0.08 0.00 77 1020.5
20260503021843 44 103 2.0 9.0 0.00 0.08 0.00 77 1020.4
20260503021327 44 82 5.0 9.0 0.00 0.08 0.00 78 1020.3
20260503020841 43 73 4.0 10.0 0.00 0.08 0.00 79 1020.4
20260503020328 43 116 5.0 10.0 0.00 0.08 0.00 80 1020.5
20260503015843 43 99 1.0 7.0 0.00 0.08 0.00 80 1020.3
20260503015336 43 100 3.0 7.0 0.00 0.08 0.00 80 1020.4
20260503014901 43 82 2.0 3.0 0.00 0.08 0.00 80 1020.5
20260503014355 43 331 1.0 3.0 0.00 0.08 0.00 80 1020.5
20260503013821 43 331 1.0 3.0 0.00 0.08 0.00 81 1020.5
20260503013336 43 333 1.0 2.0 0.00 0.08 0.00 81 1020.6
20260503012839 43 333 0.0 3.0 0.00 0.08 0.00 81 1020.4
20260503012325 43 333 1.0 4.0 0.00 0.08 0.00 81 1020.5
20260503011818 43 323 2.0 4.0 0.00 0.08 0.00 82 1020.5
20260503011322 43 243 1.0 2.0 0.00 0.08 0.00 82 1020.6
20260503010818 43 227 0.0 3.0 0.00 0.08 0.00 83 1020.4
20260503010333 43 227 0.0 3.0 0.00 0.08 0.00 83 1020.4
20260503005819 43 254 1.0 4.0 0.00 0.08 0.00 83 1020.3
20260503005353 43 263 1.0 3.0 0.00 0.08 0.00 84 1020.6
20260503004816 43 262 0.0 4.0 0.00 0.08 0.00 84 1020.4
20260503004351 43 262 1.0 4.0 0.00 0.08 0.00 83 1020.3
20260503003827 43 186 1.0 4.0 0.00 0.08 0.00 84 1020.4
20260503003332 43 198 2.0 4.0 0.00 0.08 0.00 83 1020.3
20260503002827 43 96 1.0 3.0 0.00 0.08 0.00 83 1020.6
20260503002333 43 104 0.0 1.0 0.00 0.08 0.00 83 1020.4
20260503001828 43 104 0.0 0.0 0.00 0.08 0.00 83 1020.4
20260503001337 43 104 0.0 3.0 0.00 0.08 0.00 83 1020.5
20260503000842 43 104 2.0 3.0 0.00 0.08 0.00 83 1020.5
20260503000315 43 135 0.0 1.0 0.00 0.08 0.00 83 1020.5
20260502235829 43 135 0.0 2.0 0.00 0.08 0.00 83 1020.5
20260502235314 43 135 1.0 2.0 0.00 0.08 0.00 83 1020.6
20260502234822 43 135 1.0 3.0 0.00 0.08 0.00 83 1020.6
20260502234336 43 134 1.0 3.0 0.00 0.08 0.00 83 1020.5
20260502233849 43 122 0.0 0.0 0.00 0.08 0.00 83 1020.7
20260502233333 43 122 0.0 2.0 0.00 0.08 0.00 82 1020.7
20260502232827 43 122 0.0 2.0 0.00 0.08 0.00 82 1020.8
20260502232343 43 122 0.0 0.0 0.00 0.08 0.00 81 1020.7
20260502231826 44 122 0.0 0.0 0.00 0.08 0.00 81 1020.7
20260502231321 44 122 0.0 0.0 0.00 0.08 0.00 80 1020.7
20260502230827 44 122 0.0 0.0 0.00 0.08 0.00 80 1020.9
20260502230321 44 122 0.0 1.0 0.00 0.08 0.00 80 1020.8
20260502225827 44 122 0.0 1.0 0.00 0.08 0.00 80 1020.8
20260502225342 44 122 0.0 3.0 0.00 0.08 0.00 80 1020.8
20260502224843 44 122 1.0 3.0 0.00 0.08 0.00 80 1020.7
20260502224315 44 115 2.0 3.0 0.00 0.08 0.00 80 1020.7
20260502223827 44 111 1.0 4.0 0.00 0.08 0.00 81 1020.9
20260502223321 44 111 2.0 4.0 0.00 0.08 0.00 81 1021.0
20260502222826 44 107 1.0 3.0 0.00 0.08 0.00 82 1021.1
20260502222320 44 92 2.0 3.0 0.00 0.08 0.00 82 1021.1
20260502221824 43 92 2.0 3.0 0.00 0.08 0.00 82 1021.1
20260502221319 43 91 1.0 3.0 0.00 0.08 0.00 82 1021.2
20260502220834 43 65 1.0 5.0 0.04 0.08 0.00 82 1021.2
20260502220319 44 74 3.0 4.0 0.04 0.08 0.00 81 1021.3
20260502215833 44 103 2.0 6.0 0.04 0.08 0.02 81 1021.2
20260502215316 44 100 3.0 6.0 0.04 0.08 0.02 81 1021.2
20260502214852 44 65 4.0 5.0 0.08 0.08 0.02 80 1021.2
20260502214336 44 87 2.0 4.0 0.08 0.08 0.02 80 1021.2
20260502213823 45 82 3.0 6.0 0.08 0.08 0.02 80 1021.3
20260502213339 45 94 3.0 7.0 0.08 0.08 0.02 79 1021.3
20260502212833 45 98 5.0 7.0 0.08 0.08 0.02 79 1021.3
20260502212339 45 105 5.0 7.0 0.08 0.08 0.02 78 1021.3
20260502211832 45 101 3.0 9.0 0.08 0.08 0.02 78 1021.3
20260502211328 45 101 5.0 9.0 0.08 0.08 0.02 78 1021.3
20260502210842 45 79 6.0 10.0 0.04 0.04 0.01 78 1021.4
20260502210326 46 63 5.0 11.0 0.04 0.04 0.01 78 1021.5
20260502205820 46 69 7.0 13.0 0.04 0.04 0.01 78 1021.6
20260502205356 47 65 9.0 19.0 0.04 0.04 0.01 77 1021.7
20260502204840 48 77 9.0 15.0 0.00 0.00 0.00 74 1021.9
20260502204327 48 38 3.0 6.0 0.00 0.00 0.00 72 1021.4
20260502203841 47 71 4.0 9.0 0.00 0.00 0.00 73 1021.3
20260502203327 47 76 4.0 8.0 0.00 0.00 0.00 74 1021.3
20260502202823 47 79 2.0 4.0 0.00 0.00 0.00 75 1021.5
20260502202326 47 351 2.0 5.0 0.00 0.00 0.00 74 1021.5
20260502201815 48 294 2.0 6.0 0.00 0.00 0.00 73 1021.3
20260502201331 48 59 4.0 9.0 0.00 0.00 0.00 72 1021.2
20260502200836 48 78 4.0 9.0 0.00 0.00 0.00 72 1021.2
20260502200327 48 91 5.0 8.0 0.00 0.00 0.00 72 1021.2
20260502195841 48 109 3.0 9.0 0.00 0.00 0.00 72 1021.3
20260502195325 48 97 4.0 9.0 0.00 0.00 0.00 72 1021.3
20260502194832 48 83 5.0 7.0 0.00 0.00 0.00 71 1021.1
20260502194317 48 82 5.0 8.0 0.00 0.00 0.00 70 1021.1
20260502193832 48 69 4.0 8.0 0.00 0.00 0.00 70 1021.1
20260502193327 49 87 4.0 11.0 0.00 0.00 0.00 70 1021.2
20260502192833 49 84 3.0 11.0 0.00 0.00 0.00 69 1021.3
20260502192327 49 92 6.0 11.0 0.00 0.00 0.00 69 1021.4
20260502191831 48 117 6.0 10.0 0.00 0.00 0.00 70 1021.4
20260502191325 48 111 6.0 10.0 0.00 0.00 0.00 70 1021.4
20260502190830 48 92 7.0 10.0 0.00 0.00 0.00 69 1021.6
20260502190326 49 61 3.0 7.0 0.00 0.00 0.00 70 1021.4
20260502185817 49 49 2.0 5.0 0.00 0.00 0.00 69 1021.4
20260502185323 49 348 2.0 5.0 0.00 0.00 0.00 68 1021.3
20260502184833 49 71 2.0 10.0 0.00 0.00 0.00 67 1021.4
20260502184319 49 44 5.0 10.0 0.00 0.00 0.00 67 1021.5
20260502183854 50 342 3.0 12.0 0.00 0.00 0.00 66 1021.6
20260502183318 50 18 7.0 12.0 0.00 0.00 0.00 61 1021.6
20260502182832 50 59 6.0 10.0 0.00 0.00 0.00 58 1021.3
20260502182317 50 70 5.0 6.0 0.00 0.00 0.00 58 1021.1
20260502181840 50 80 2.0 9.0 0.00 0.00 0.00 58 1021.0
20260502181324 50 73 5.0 10.0 0.00 0.00 0.00 58 1021.0